CEST,Max TemperatureF,Mean TemperatureF,Min TemperatureF,Max Dew PointF,MeanDew PointF,Min DewpointF,Max Humidity, Mean Humidity, Min Humidity, Max Sea Level PressureIn, Mean Sea Level PressureIn, Min Sea Level PressureIn, Max VisibilityMiles, Mean VisibilityMiles, Min VisibilityMiles, Max Wind SpeedMPH, Mean Wind SpeedMPH, Max Gust SpeedMPH,PrecipitationIn, CloudCover, Events, WindDirDegrees
2012-9-1,60,54,48,53,49,46,100,85,64,30.30,30.23,30.13,11,4,0,13,6,,0.01,6,Fog-Rain,10
2012-9-2,64,55,46,53,49,45,100,81,59,30.33,30.27,30.20,19,5,0,9,5,,0.00,4,Fog,9
2012-9-3,70,58,46,53,49,43,100,70,42,30.28,30.24,30.14,19,6,0,10,4,,0.00,4,Fog,22
2012-9-4,70,60,50,54,50,46,94,70,44,30.24,30.19,30.08,19,7,2,10,5,,0.00,2,,12
2012-9-5,70,58,47,58,51,45,98,79,42,30.21,30.14,30.06,19,4,0,12,3,,0.02,4,Fog-Rain,2
2012-9-6,58,50,41,52,44,37,96,75,45,30.33,30.28,30.19,16,6,3,9,5,,0.00,6,Rain,331
2012-9-7,69,54,39,45,41,36,96,60,28,30.33,30.25,30.16,13,7,6,14,5,,0.00,7,,228
2012-9-8,74,63,52,56,50,43,88,61,39,30.24,30.19,30.07,19,8,6,10,5,,0.00,4,,258
2012-9-9,78,64,50,56,51,46,99,65,30,30.18,30.10,29.95,19,6,0,9,3,,0.00,,,163
2012-9-10,81,68,55,57,51,45,94,59,23,30.09,30.04,29.94,19,10,6,10,4,,0.00,5,,207
2012-9-11,77,66,56,57,53,48,94,67,31,30.06,29.96,29.78,19,7,3,16,6,93,0.24,6,Rain-Thunderstorm,203
2012-9-12,55,50,46,58,47,41,100,86,52,29.94,29.90,29.85,17,6,1,10,7,,0.12,7,Rain,305
2012-9-13,57,50,42,45,40,34,93,71,37,30.10,29.98,29.92,19,6,3,8,5,,0.00,6,,323
2012-9-14,61,50,38,47,41,36,96,63,41,30.13,29.96,29.83,19,8,4,20,8,26,0.00,4,,213
2012-9-15,57,50,42,49,45,41,96,76,51,30.12,30.02,29.88,19,8,1,14,9,,0.00,6,Rain,260
2012-9-16,65,52,39,48,43,36,100,73,39,30.15,30.06,29.95,19,6,0,9,3,,0.00,1,Fog,192
2012-9-17,66,56,45,53,47,39,94,74,49,30.01,29.98,29.93,19,9,6,9,5,,0.00,2,,206
2012-9-18,70,58,46,54,49,43,100,73,41,30.01,29.91,29.80,19,6,0,14,5,,0.20,3,Rain,219
2012-9-19,56,46,37,53,41,34,100,76,41,30.17,30.02,29.87,19,6,1,13,7,,0.00,4,Rain,290
2012-9-20,53,45,37,41,36,32,93,71,37,30.27,30.22,30.15,19,7,4,13,5,,0.00,4,,235
2012-9-21,59,48,37,41,37,32,95,68,33,30.26,30.09,29.89,19,7,4,9,4,,0.01,6,,167
2012-9-22,55,47,37,49,42,36,99,77,47,30.13,29.94,29.80,19,6,1,17,8,,0.01,6,Rain,247
2012-9-23,56,46,36,42,38,32,98,73,41,30.19,30.03,29.80,16,7,4,9,3,,0.00,7,,121
2012-9-24,66,56,46,55,46,41,89,73,56,29.81,29.64,29.50,19,9,6,21,9,30,0.00,5,Rain,176
2012-9-25,68,56,45,51,45,39,94,74,38,29.73,29.68,29.58,19,7,3,22,7,31,0.00,5,Rain,178
2012-9-26,69,58,46,54,48,43,99,77,42,29.69,29.64,29.56,19,8,0,10,4,,0.00,6,Fog-Rain,238
2012-9-27,56,51,46,49,46,43,96,81,67,29.92,29.79,29.63,12,6,1,21,8,,0.03,6,Rain-Thunderstorm,222
2012-9-28,58,50,41,48,44,37,94,77,50,30.12,30.06,29.93,17,7,5,14,9,,0.00,6,Rain,224
2012-9-29,60,50,40,48,43,36,98,77,49,30.12,30.04,29.96,19,7,0,13,4,,0.00,5,,225
2012-9-30,61,48,36,44,38,34,100,72,34,30.25,30.17,30.12,19,7,2,6,3,,0.00,4,Fog,242